Temperature
20 20 19 19 19 19 19 19 19 19 19 19 19 18 18 18 18 18 18 18 18 18 18 18 18 18 18 18 18 18 18 18 17 17 17 17 17 17 17 16 16 16 16
20 20 19 19 19 19 19 19 18 18 18 18 18 18 18 18 18 18 18 18 18 17 17 17 18 17 17 17 17 17 17 17 17 17 17 17 16 16 16 16 16 16 16
19 19 19 19 18 18 18 18 18 18 18 18 18 18 18 18 18 18 18 18 17 17 17 17 17 17 17 17 17 17 17 17 17 16 16 16 16 16 16 16 16 15 15
19 19 19 19 18 18 18 18 18 18 18 18 18 18 17 17 17 17 17 17 17 17 17 17 17 17 17 17 17 17 16 16 16 16 16 16 16 16 15 15 15 15 15
19 18 18 18 18 18 18 18 17 17 17 17 17 17 17 17 17 17 17 17 17 17 17 17 17 17 17 17 16 16 16 16 16 16 15 15 15 15 15 15 14 15 14
18 18 18 18 17 17 17 17 17 17 17 17 17 17 17 17 17 17 17 16 16 16 16 16 16 16 16 16 16 16 16 15 15 15 15 15 15 14 14 14 14 14 14
18 18 18 17 17 17 17 17 17 17 17 17 16 16 16 16 16 16 16 16 16 16 16 16 16 16 16 16 16 15 15 15 15 15 14 14 14 14 14 14 14 14 14
18 17 17 17 17 17 16 16 16 16 16 16 16 16 16 16 16 16 16 16 15 15 15 15 15 15 15 15 15 15 15 15 15 14 14 14 14 14 14 14 14 14 14
17 17 17 17 17 17 16 16 16 16 16 16 16 16 16 16 16 16 16 15 15 15 15 15 15 15 15 15 15 15 14 14 14 14 14 14 14 14 14 14 14 13 13
17 17 16 16 16 16 16 16 16 16 16 16 15 16 15 15 15 15 15 15 15 15 14 14 14 14 15 14 14 14 14 14 14 14 14 14 14 13 13 13 13 13 13
16 16 16 16 16 16 16 15 15 15 15 15 15 15 15 15 15 15 15 15 14 14 14 14 14 14 14 14 14 14 14 14 14 14 13 13 13 13 13 13 13 13 12
16 16 16 15 15 15 15 15 15 15 15 15 15 15 14 14 14 14 14 14 14 14 14 14 14 14 14 14 14 14 14 13 13 13 13 13 13 13 13 13 13 12 12
15 15 15 15 15 15 15 15 14 14 14 14 14 14 14 14 14 14 14 14 14 14 14 13 14 14 14 14 14 13 13 13 13 13 13 13 13 13 13 12 12 12 12
15 15 15 15 15 15 14 14 14 14 14 14 14 14 14 14 14 14 14 14 14 13 13 13 13 13 13 13 13 13 13 13 13 12 12 12 12 12 12 12 12 12 12
15 15 15 14 14 14 14 14 14 14 14 14 14 14 14 14 14 14 13 13 13 13 13 13 13 13 13 13 13 13 12 12 12 12 12 12 12 12 12 12 11 11 11
14 14 14 14 14 14 14 14 14 14 14 14 14 14 13 13 13 13 13 13 13 13 13 13 12 12 12 12 12 12 12 12 12 11 11 11 11 11 11 11 11 11 11
14 14 14 14 14 14 14 14 14 14 14 14 14 14 13 13 13 13 13 13 13 13 12 12 12 12 12 12 12 11 11 11 11 11 11 11 11 11 11 11 11 11 11
13 13 13 13 13 13 13 13 14 14 14 13 13 13 13 13 13 13 13 13 12 12 12 12 12 11 11 11 11 11 11 11 11 10 10 10 10 10 10 10 10 10 10
13 13 13 13 13 13 13 13 13 13 13 13 13 13 13 13 13 13 12 12 12 12 12 12 11 11 11 11 11 10 10 10 10 10 10 9 9 10 10 10 10 10 10
13 13 13 13 13 13 13 13 13 13 13 13 13 13 13 13 13 13 12 12 12 12 11 11 11 11 11 11 10 10 10 10 10 9 9 9 9 9 9 9 9 9 9
12 12 12 12 12 12 13 13 13 13 13 13 13 13 13 12 12 12 12 12 12 11 11 11 11 11 10 10 10 10 10 9 9 9 9 9 9 8 8 9 9 9 9
12 12 12 12 12 12 12 12 12 13 13 12 12 12 12 12 12 12 12 11 11 11 11 11 10 10 10 10 10 10 10 9 9 9 9 8 8 8 8 8 8 8 8
12 12 12 12 12 12 12 12 12 12 12 12 12 12 12 12 12 12 11 11 11 11 11 10 10 10 10 10 9 9 9 9 9 9 9 8 8 8 8 8 8 8 8
11 12 12 12 12 12 12 12 12 12 12 12 11 11 11 11 11 11 11 11 11 10 10 10 10 10 10 9 9 9 9 9 9 9 9 8 8 8 7 7 7 7 7
11 11 11 11 11 11 11 11 11 11 11 11 11 11 11 11 11 11 10 10 10 10 10 10 9 9 9 9 9 9 9 9 9 8 8 8 8 7 7 7 7 7 7
11 11 11 11 11 11 11 11 11 11 11 11 10 10 10 10 10 10 10 9 9 9 9 9 9 9 9 9 8 8 8 8 8 8 8 8 7 7 7 7 7 7 7
Wind_Speed
5 4 3 3 3 2 2 1 1 1 1 1 0 0 1 1 1 1 1 1 1 1 1 1 2 2 3 3 3 2 2 1 2 3 2 1 1 2 1 3 4 4 5
4 4 3 3 2 2 1 1 1 1 1 1 1 1 1 1 1 1 2 1 1 2 2 1 2 2 2 3 3 3 3 2 2 3 3 2 2 2 2 3 2 2 3
3 4 3 3 2 2 1 1 1 1 1 1 1 1 1 1 1 1 2 2 1 1 1 1 1 2 2 3 3 3 4 4 2 3 4 2 1 1 2 2 2 2 3
2 2 3 3 3 3 2 2 1 1 1 1 0 1 1 1 1 2 2 2 2 2 1 1 1 1 2 3 3 3 4 4 4 3 3 2 1 1 1 2 2 2 2
2 2 2 2 2 2 2 1 1 1 1 0 0 1 1 1 2 2 3 2 2 2 2 1 1 1 2 2 3 3 4 4 4 3 3 2 2 2 2 3 3 2 2
2 2 2 2 2 2 2 2 1 1 1 1 0 0 1 2 4 4 3 3 2 2 2 2 2 1 2 2 3 3 3 4 4 4 3 3 3 3 3 3 3 2 3
2 2 2 1 2 2 2 2 2 1 1 1 1 0 1 2 4 4 4 4 2 2 2 2 4 2 1 2 4 4 4 5 4 4 4 4 4 3 3 4 3 4 4
1 1 1 1 2 2 1 1 1 1 1 1 1 1 1 1 2 3 4 3 3 2 2 2 2 2 4 4 4 4 4 4 5 4 4 5 5 3 4 5 5 4 4
1 1 1 1 1 1 1 1 1 2 2 2 2 2 1 1 3 3 3 3 2 3 2 1 1 1 3 4 3 4 5 5 5 5 6 7 7 7 5 4 4 3 4
0 0 0 1 1 1 2 2 1 2 2 2 2 2 2 2 2 2 2 2 3 3 2 2 1 1 3 3 3 4 5 5 6 6 6 7 7 7 8 5 4 4 3
1 1 1 1 2 2 1 1 1 2 2 2 2 3 3 3 2 2 2 2 3 4 4 2 2 3 3 4 4 4 6 6 6 6 6 4 4 3 4 4 3 4 4
1 1 1 1 2 1 1 1 2 2 2 2 2 3 3 2 1 1 3 4 4 4 4 3 3 4 4 6 5 6 8 7 5 5 4 4 3 3 3 3 4 5 5
1 1 1 2 1 1 1 2 2 2 2 3 3 3 3 1 1 2 3 4 6 4 4 5 5 5 5 5 7 8 7 5 4 5 4 4 3 3 3 3 3 4 4
1 1 1 2 1 1 1 2 2 2 3 3 3 3 3 1 1 1 2 3 4 4 5 5 6 6 6 5 5 5 5 5 4 4 4 3 3 3 3 2 2 3 2
2 2 2 2 2 2 2 2 3 2 2 3 2 2 2 2 2 2 2 2 3 4 4 5 4 3 3 4 3 3 3 3 4 4 3 3 3 3 3 3 3 3 3
2 2 3 3 2 2 2 1 1 1 2 2 2 2 2 2 2 3 3 4 5 4 3 4 4 4 3 3 3 3 3 3 3 3 3 4 4 4 4 3 3 3 3
3 3 4 4 3 3 3 3 2 2 3 4 4 5 5 5 4 4 4 4 4 3 3 4 4 3 3 3 2 3 3 3 3 3 3 4 4 4 3 3 3 3 3
3 3 4 4 3 4 4 4 4 3 3 3 4 7 7 7 6 5 4 1 2 2 3 4 4 3 3 3 3 3 3 2 2 3 3 3 3 4 3 3 2 3 3
4 4 4 4 5 4 4 5 4 4 3 3 2 3 5 6 6 5 4 3 4 3 3 4 3 3 3 2 2 2 2 2 3 3 3 3 3 3 3 3 3 3 3
4 5 5 5 5 5 5 5 4 4 4 3 3 1 1 2 2 2 3 4 4 4 3 3 3 2 2 2 2 2 2 2 2 3 2 2 2 2 3 3 3 2 3
5 5 6 6 6 5 5 5 5 5 4 4 3 3 4 4 3 3 3 4 4 4 3 3 2 2 2 2 3 3 3 3 2 3 2 2 2 2 3 3 3 2 2
6 5 5 5 5 4 4 5 5 5 5 4 3 2 4 4 3 3 3 2 3 3 2 2 2 2 2 2 2 3 3 3 3 3 2 2 2 2 2 2 2 2 1
6 6 5 4 4 4 5 5 5 4 4 4 4 2 2 2 3 2 2 2 2 2 2 1 1 2 2 2 2 2 3 2 3 3 3 2 2 2 2 2 2 2 2
6 5 5 4 4 4 4 3 4 4 4 4 3 2 2 2 3 3 3 2 1 1 1 1 1 2 3 2 2 2 2 2 2 2 2 2 2 1 2 2 2 2 2
5 4 4 4 3 3 3 3 4 4 4 4 3 2 2 1 2 2 2 2 2 1 1 1 1 2 2 3 2 2 3 3 3 3 2 2 2 1 1 2 2 2 2
5 4 4 3 2 2 3 3 3 3 3 3 3 2 2 2 2 2 2 3 3 2 2 2 3 3 3 3 3 3 2 3 3 3 3 2 2 1 1 1 2 2 2
Wind_Direction
167 176 168 166 184 201 212 198 162 198 227 209 219 281 284 313 315 304 270 270 277 272 267 273 287 307 316 319 320 321 314 302 272 290 300 299 309 294 254 235 227 207 209
160 160 163 162 178 195 191 173 204 203 225 233 230 253 256 274 300 298 292 272 278 293 301 306 303 304 313 321 321 318 311 291 257 273 279 280 268 263 257 249 242 237 227
142 156 155 164 181 193 192 176 196 203 219 250 273 287 308 319 310 313 306 296 284 286 292 292 297 307 310 309 306 309 309 307 287 264 271 268 272 291 299 289 280 270 258
142 166 163 179 184 191 199 183 175 195 213 209 250 307 326 339 330 308 297 283 290 286 285 287 297 310 309 302 298 305 305 304 300 287 279 281 296 308 289 276 276 273 272
157 187 167 191 179 182 190 186 178 200 209 159 316 336 325 305 322 324 298 276 275 291 292 304 304 333 348 324 317 326 320 314 307 300 297 310 308 320 291 277 278 281 278
176 179 161 172 173 186 195 186 190 197 202 150 159 347 321 318 344 351 330 308 293 281 302 315 287 347 337 316 315 315 308 301 307 300 296 298 307 306 302 290 284 288 278
165 146 146 161 170 190 212 190 198 202 199 225 243 181 103 349 344 338 320 298 293 287 290 297 298 313 337 308 297 289 290 283 273 276 283 285 289 296 290 287 286 281 271
136 150 178 197 200 193 210 201 199 201 211 226 214 203 177 311 322 317 305 277 280 287 282 284 299 321 318 323 303 296 286 284 268 259 264 268 270 275 280 274 270 273 273
166 176 255 255 231 197 217 230 228 215 223 224 215 213 215 292 303 301 295 273 272 275 263 261 260 289 325 332 315 303 296 290 284 263 250 254 257 263 268 281 285 283 278
256 283 277 278 287 269 240 237 239 234 230 224 218 227 238 241 241 252 275 271 279 281 264 226 205 251 289 299 293 293 296 304 307 302 281 261 252 250 243 234 252 267 276
326 308 280 267 264 255 240 238 232 251 246 233 227 230 235 233 217 207 220 273 298 295 288 271 285 294 279 274 276 275 278 288 288 284 282 274 265 251 238 227 233 244 259
347 340 333 308 279 261 237 257 252 252 256 252 249 251 239 226 218 226 236 254 282 289 294 303 299 300 281 270 270 275 281 283 278 279 281 280 277 270 261 250 244 240 237
18 10 337 310 295 296 248 250 259 242 249 263 262 264 261 234 230 232 246 268 283 287 299 308 308 283 267 260 258 268 277 274 272 275 278 282 284 277 271 265 259 250 242
345 323 281 282 283 299 278 259 253 253 243 248 258 269 279 273 287 313 288 276 280 285 294 292 280 264 261 266 262 258 257 265 271 277 286 286 287 281 275 267 261 254 254
310 294 285 281 281 262 262 272 257 260 235 245 269 271 278 282 284 274 252 264 272 275 285 278 272 278 259 255 258 259 266 271 275 279 286 290 286 281 274 265 247 247 246
293 300 298 287 287 280 264 278 355 229 182 189 225 255 257 253 271 268 261 254 264 266 261 266 271 270 275 274 277 277 275 279 284 289 286 284 284 284 281 275 259 244 244
309 305 305 303 299 291 285 266 263 248 216 225 227 229 230 241 253 260 257 256 262 246 246 263 269 270 276 282 286 293 292 288 286 283 285 290 289 286 288 290 284 268 260
306 298 295 287 285 280 280 272 265 256 250 254 240 224 220 228 235 240 234 234 276 254 261 275 282 289 296 302 299 301 309 312 305 291 292 294 294 294 291 285 285 287 277
291 288 289 291 287 284 285 279 276 274 263 256 243 224 220 222 229 230 208 242 262 267 266 276 287 290 297 301 302 313 317 312 312 301 299 301 303 304 297 288 281 286 279
267 270 273 276 278 278 278 279 278 280 277 270 257 237 219 231 238 217 215 239 262 274 278 279 280 297 308 310 310 304 303 305 307 295 289 293 301 301 294 288 279 276 273
275 263 260 268 270 273 277 279 279 275 275 276 273 219 209 241 243 234 227 229 242 260 272 287 292 294 290 294 291 287 288 287 284 284 283 281 288 293 287 281 275 276 278
284 274 269 271 271 277 280 279 282 286 285 280 280 247 219 249 264 254 247 238 241 249 258 266 287 299 300 292 294 289 289 296 300 294 294 286 286 283 290 294 298 296 276
280 279 274 273 274 272 273 283 283 279 279 281 286 287 249 263 281 282 266 254 250 252 247 240 296 323 326 308 294 293 288 289 297 303 306 298 293 300 307 311 324 333 309
285 283 281 277 277 280 282 289 294 293 293 298 303 307 301 285 292 304 312 324 322 304 321 337 323 324 338 338 329 326 339 333 317 302 305 294 285 306 328 327 320 327 332
292 294 289 285 286 289 291 291 293 299 299 301 306 315 312 322 338 347 349 354 346 3 14 6 2 346 345 345 351 357 3 4 355 340 318 306 297 309 323 320 324 330 348
294 290 290 290 293 299 298 302 303 312 313 316 328 346 350 347 3 18 21 12 8 17 23 10 12 27 25 9 15 28 34 24 6 342 324 299 294 291 297 296 321 343 337
Height
1515 1516 1517 1518 1518 1519 1519 1520 1521 1521 1521 1521 1521 1521 1521 1521 1521 1521 1521 1521 1521 1521 1521 1520 1520 1520 1520 1520 1520 1519 1519 1519 1517 1516 1516 1516 1514 1513 1512 1511 1510 1509 1508
1513 1514 1515 1516 1517 1517 1518 1518 1519 1519 1519 1519 1519 1519 1519 1519 1520 1519 1519 1519 1519 1519 1519 1519 1518 1518 1518 1518 1517 1517 1516 1516 1515 1514 1513 1513 1512 1511 1510 1509 1508 1506 1505
1512 1513 1513 1514 1515 1515 1516 1516 1516 1517 1517 1517 1517 1517 1517 1517 1517 1517 1517 1517 1517 1517 1516 1516 1516 1516 1515 1515 1515 1514 1514 1514 1513 1512 1510 1510 1509 1508 1507 1506 1505 1504 1503
1511 1512 1512 1513 1513 1514 1514 1514 1514 1515 1515 1515 1515 1515 1515 1515 1515 1515 1515 1515 1514 1514 1514 1514 1513 1513 1513 1512 1512 1512 1511 1510 1510 1509 1508 1507 1506 1505 1504 1502 1501 1501 1500
1510 1511 1511 1511 1511 1512 1512 1512 1512 1513 1513 1513 1513 1513 1513 1513 1513 1513 1513 1512 1512 1512 1512 1511 1511 1511 1510 1510 1510 1508 1508 1507 1506 1505 1504 1503 1502 1501 1500 1499 1499 1498 1497
1508 1509 1509 1509 1510 1510 1510 1510 1510 1510 1511 1511 1511 1511 1511 1511 1511 1510 1510 1510 1509 1509 1508 1508 1508 1508 1507 1507 1506 1506 1505 1504 1502 1502 1501 1500 1499 1498 1497 1496 1495 1495 1493
1507 1508 1508 1508 1508 1508 1509 1508 1508 1508 1508 1508 1509 1508 1508 1508 1508 1508 1507 1507 1506 1506 1505 1505 1505 1504 1504 1503 1503 1502 1501 1500 1500 1499 1497 1496 1496 1495 1494 1493 1492 1491 1490
1506 1506 1506 1506 1506 1506 1506 1506 1506 1506 1506 1505 1505 1506 1506 1506 1506 1505 1505 1504 1504 1503 1503 1502 1502 1501 1500 1499 1499 1498 1497 1496 1496 1495 1494 1493 1493 1492 1491 1490 1489 1488 1487
1503 1503 1504 1504 1503 1503 1503 1504 1504 1504 1503 1503 1503 1503 1503 1503 1503 1502 1502 1501 1500 1500 1500 1499 1498 1498 1498 1496 1495 1494 1493 1492 1492 1491 1490 1489 1489 1488 1487 1486 1485 1484 1482
1501 1501 1501 1501 1501 1500 1501 1501 1501 1501 1501 1500 1500 1500 1500 1500 1499 1499 1499 1498 1497 1497 1496 1496 1495 1494 1494 1493 1492 1491 1489 1488 1488 1486 1486 1485 1484 1484 1483 1482 1481 1480 1479
1499 1499 1498 1498 1498 1498 1498 1498 1498 1498 1498 1498 1497 1497 1497 1497 1496 1496 1495 1495 1494 1494 1493 1493 1492 1491 1490 1489 1489 1488 1487 1485 1484 1483 1482 1481 1480 1479 1479 1478 1477 1476 1475
1496 1496 1496 1496 1496 1495 1495 1495 1496 1496 1495 1495 1495 1495 1494 1494 1493 1492 1492 1492 1491 1491 1490 1489 1488 1487 1486 1486 1485 1484 1483 1482 1481 1480 1478 1477 1476 1475 1474 1474 1473 1472 1472
1494 1493 1494 1494 1493 1493 1492 1492 1493 1492 1492 1493 1493 1492 1492 1491 1490 1490 1489 1488 1488 1487 1486 1486 1485 1483 1483 1482 1481 1480 1479 1478 1477 1476 1475 1474 1473 1472 1471 1470 1469 1468 1468
1491 1491 1491 1491 1491 1491 1490 1490 1490 1490 1489 1489 1489 1489 1489 1488 1487 1486 1485 1485 1484 1483 1482 1481 1481 1480 1479 1478 1477 1476 1475 1474 1473 1472 1471 1470 1469 1468 1467 1466 1465 1464 1464
1489 1489 1489 1489 1489 1488 1488 1488 1487 1487 1487 1486 1486 1485 1485 1484 1484 1483 1481 1481 1480 1479 1478 1478 1477 1476 1475 1474 1473 1473 1472 1471 1470 1469 1468 1466 1465 1464 1463 1462 1461 1460 1460
1487 1487 1487 1487 1487 1486 1485 1485 1484 1484 1483 1482 1482 1482 1481 1481 1480 1480 1479 1478 1477 1477 1476 1475 1474 1473 1473 1471 1470 1469 1468 1467 1466 1465 1464 1463 1461 1460 1459 1458 1457 1456 1455
1485 1485 1485 1485 1484 1484 1483 1482 1481 1480 1479 1479 1478 1478 1477 1477 1476 1476 1475 1475 1474 1473 1472 1472 1471 1471 1470 1468 1467 1466 1464 1463 1462 1461 1460 1459 1458 1456 1455 1454 1453 1452 1452
1483 1483 1482 1482 1482 1481 1480 1479 1478 1476 1475 1474 1474 1473 1473 1473 1472 1472 1472 1472 1471 1470 1469 1469 1468 1468 1467 1465 1464 1463 1462 1460 1459 1457 1456 1455 1454 1453 1451 1450 1449 1449 1448
1480 1480 1479 1479 1479 1478 1477 1476 1475 1474 1472 1471 1470 1469 1469 1469 1469 1469 1468 1468 1468 1467 1467 1466 1465 1464 1463 1462 1461 1460 1459 1457 1455 1454 1452 1451 1450 1449 1448 1447 1446 1445 1445
1477 1477 1477 1476 1476 1475 1474 1473 1472 1471 1469 1468 1468 1467 1466 1466 1465 1465 1465 1464 1464 1464 1463 1462 1462 1461 1460 1459 1458 1457 1455 1453 1452 1450 1449 1448 1447 1446 1445 1444 1443 1442 1442
1474 1473 1473 1473 1472 1472 1471 1470 1469 1468 1466 1465 1464 1463 1463 1462 1461 1461 1461 1461 1461 1460 1459 1459 1458 1457 1456 1455 1455 1453 1452 1450 1449 1447 1446 1445 1444 1442 1441 1441 1440 1440 1439
1471 1470 1470 1469 1468 1468 1467 1466 1465 1464 1463 1462 1461 1460 1459 1459 1459 1459 1458 1458 1458 1457 1457 1456 1455 1454 1453 1452 1451 1450 1448 1447 1446 1444 1443 1442 1441 1439 1439 1438 1437 1437 1437
1467 1467 1466 1466 1465 1464 1463 1462 1462 1461 1460 1459 1458 1457 1457 1456 1456 1455 1455 1455 1454 1454 1453 1452 1451 1450 1449 1449 1448 1447 1446 1444 1443 1442 1441 1440 1438 1437 1437 1436 1436 1435 1435
1464 1464 1463 1462 1461 1460 1459 1458 1457 1457 1456 1456 1455 1455 1454 1453 1453 1452 1452 1451 1451 1450 1450 1449 1448 1447 1446 1445 1444 1443 1443 1442 1441 1440 1438 1437 1437 1436 1436 1435 1435 1434 1433
1461 1460 1460 1459 1458 1457 1456 1455 1454 1454 1453 1453 1452 1452 1451 1450 1449 1449 1448 1448 1448 1447 1446 1445 1444 1443 1443 1442 1441 1441 1440 1439 1438 1437 1436 1436 1435 1434 1434 1434 1434 1433 1432
1458 1457 1456 1456 1455 1454 1453 1452 1452 1451 1450 1450 1450 1449 1448 1448 1447 1446 1445 1445 1444 1443 1443 1442 1441 1440 1439 1439 1438 1438 1437 1436 1435 1435 1435 1434 1434 1433 1433 1433 1433 1432 1432